Hebei Shijiazhuang — VRIS2 — position and weather

sailwx.info

Track history (hours):
 
Tides and Currents Weather Stations Pressure Air Temp Water Temp Dewpoint Dewpoint Depression Visibility Wind Speed Wind Dir Waves Ship Positions

Hebei Shijiazhuang

Last reported at 2014-Jul-23 04:31 UTC. Time now 2014-Jul-23 05:14 UTC.
Position N 31°56' E 120°09'.

Length 235 m; draft 10.8 m.

Type: Cargo ship. MMSI: 477899600.

Date/timePositionNaut miles runAvg speedWind from/ knotsBaromVisibWave heightAir tempDewpointWater temp
2014-Jul-23 04:31N 31°56' E 120°09'0 0.0
2014-Jul-23 03:31N 31°56' E 120°09'0 0.0
2014-Jul-23 02:31N 31°56' E 120°09'0 0.0
2014-Jul-23 01:31N 31°56' E 120°09'0 0.0
2014-Jul-23 00:31N 31°56' E 120°09'0 0.0
2014-Jul-22 23:31N 31°56' E 120°09'0 0.0
2014-Jul-22 22:31N 31°56' E 120°09'0 0.0
2014-Jul-22 21:31N 31°56' E 120°09'0 0.0
2014-Jul-22 20:31N 31°56' E 120°09'0 0.0
2014-Jul-22 19:31N 31°56' E 120°09'0 0.0
2014-Jul-22 18:31N 31°56' E 120°09'0 0.0
2014-Jul-22 17:31N 31°56' E 120°09'0 0.0
2014-Jul-22 16:31N 31°56' E 120°09'0 0.0
2014-Jul-22 15:31N 31°56' E 120°09'0 0.0
2014-Jul-22 14:31N 31°56' E 120°09'0 0.0
2014-Jul-22 13:31N 31°56' E 120°09'0 0.0
2014-Jul-22 12:31N 31°56' E 120°09'0 0.0
2014-Jul-22 11:31N 31°56' E 120°09'0 0.0
2014-Jul-22 10:31N 31°56' E 120°09'0 0.0
2014-Jul-22 09:31N 31°56' E 120°09'0 0.0
2014-Jul-22 08:31N 31°56' E 120°09'0 0.0
2014-Jul-22 07:31N 31°56' E 120°09'0 0.0
2014-Jul-22 06:31N 31°56' E 120°09'0 0.0
2014-Jul-22 05:31N 31°56' E 120°09'0 0.0
2014-Jul-22 04:31N 31°56' E 120°09'0 0.0
2014-Jul-22 03:25N 31°56' E 120°09'0 0.0
2014-Jul-22 02:31N 31°56' E 120°09'0 0.0
2014-Jul-22 01:31N 31°56' E 120°09'0 0.0
2014-Jul-22 00:31N 31°56' E 120°09'0 0.0
2014-Jul-21 23:31N 31°56' E 120°09'0 0.0
2014-Jul-21 22:31N 31°56' E 120°09'0 0.0
2014-Jul-21 21:25N 31°56' E 120°09'0 0.0
2014-Jul-21 20:25N 31°56' E 120°09'0 0.0
2014-Jul-21 20:13N 31°56' E 120°09'0 0.0
2014-Jul-21 19:25N 31°56' E 120°09'0 0.0
2014-Jul-21 18:31N 31°56' E 120°09'0 0.0
2014-Jul-21 17:31N 31°56' E 120°09'0 0.0
2014-Jul-21 16:31N 31°56' E 120°09'1 1.4
2014-Jul-21 15:33N 31°56' E 120°11'10 9.7
2014-Jul-21 14:34N 31°58' E 120°22'6 6.5
2014-Jul-21 13:34N 32°02' E 120°28'1110.8
2014-Jul-21 12:34N 32°00' E 120°40'9 9.4
2014-Jul-21 11:33N 31°58' E 120°51'1110.7
2014-Jul-21 10:33N 31°48' E 120°55'9 9.5
2014-Jul-21 09:34N 31°45' E 121°06'1010.3
2014-Jul-21 08:33N 31°38' E 121°15'5 4.0
2014-Jul-21 07:20N 31°35' E 121°19'0 0.0
2014-Jul-21 05:08N 31°35' E 121°19'0 0.0
2014-Jul-21 04:32N 31°35' E 121°19'3 3.3
2014-Jul-21 03:33N 31°32' E 121°21'9 9.0
2014-Jul-21 02:33N 31°26' E 121°29'10 9.9
2014-Jul-21 01:33N 31°21' E 121°39'10 9.7
2014-Jul-21 00:33N 31°17' E 121°49'10 9.6
2014-Jul-20 23:32N 31°15' E 122°01'9 9.5
2014-Jul-20 22:34N 31°11' E 122°10'10 9.7
2014-Jul-20 21:33N 31°06' E 122°20'8 8.2
2014-Jul-20 20:33N 31°07' E 122°30'7 7.2
2014-Jul-20 19:31N 31°07' E 122°38'8 6.3
2014-Jul-20 18:16N 31°10' E 122°47'0 0.1
2014-Jul-20 16:08N 31°10' E 122°47'0 0.0
2014-Jul-19 23:32N 31°10' E 122°47'0 0.1
2014-Jul-19 20:23N 31°10' E 122°47'0 0.1
2014-Jul-19 19:23N 31°10' E 122°47'0 0.0
2014-Jul-19 12:17N 31°10' E 122°47'19 0.4
2014-Jul-17 18:24N 30°52' E 122°53'1112.7
2014-Jul-17 17:33N 30°42' E 122°57'1312.7
2014-Jul-17 16:33N 30°30' E 123°01'1312.6
2014-Jul-17 15:32N 30°18' E 123°06'1212.0
2014-Jul-17 14:33N 30°06' E 123°06'1510.0
2014-Jul-17 13:05N 29°57' E 122°53'610.5
2014-Jul-17 12:31N 29°55' E 122°47'1110.9
2014-Jul-17 11:33N 29°49' E 122°36'1111.3
2014-Jul-17 10:33N 29°44' E 122°25'1211.7
2014-Jul-17 09:33N 29°50' E 122°13'1110.9
2014-Jul-17 08:33N 29°55' E 122°02'7 7.0
2014-Jul-17 07:33N 30°02' E 121°59'0 0.0
2014-Jul-17 06:28N 30°02' E 121°59'0 0.0
2014-Jul-17 05:28N 30°02' E 121°59'0 0.0
2014-Jul-17 04:28N 30°02' E 121°59'0 0.0
2014-Jul-17 03:28N 30°02' E 121°59'0 0.0
2014-Jul-17 02:28N 30°02' E 121°59'0 0.0
2014-Jul-17 01:28N 30°02' E 121°59'0 0.0
2014-Jul-17 00:22N 30°02' E 121°59'0 0.0
2014-Jul-16 23:31N 30°02' E 121°59'0 0.0
2014-Jul-16 22:16N 30°02' E 121°59'0 0.0
2014-Jul-16 21:22N 30°02' E 121°59'0 0.0
2014-Jul-16 20:22N 30°02' E 121°59'0 0.0
2014-Jul-16 19:28N 30°02' E 121°59'0 0.0
2014-Jul-16 18:16N 30°02' E 121°59'0 0.1
2014-Jul-16 17:28N 30°02' E 121°59'0 0.0
2014-Jul-16 16:28N 30°02' E 121°59'0 0.0
2014-Jul-16 15:22N 30°02' E 121°59'0 0.0
2014-Jul-16 14:22N 30°02' E 121°59'0 0.0
2014-Jul-16 13:28N 30°02' E 121°59'0 0.0
2014-Jul-16 12:28N 30°02' E 121°59'0 0.0
2014-Jul-16 11:28N 30°02' E 121°59'0 0.1
2014-Jul-16 10:33N 30°02' E 121°59'4 4.4
2014-Jul-16 09:33N 29°57' E 122°00'6 5.6
2014-Jul-16 08:33N 29°56' E 122°06'5 5.5
2014-Jul-16 07:33N 29°53' E 122°12'9 8.5
2014-Jul-16 06:33N 29°46' E 122°18'9 9.1
2014-Jul-16 05:33N 29°43' E 122°28'4 3.9
2014-Jul-16 04:29N 29°43' E 122°33'0 0.1
2014-Jul-16 03:29N 29°43' E 122°32'0 0.1
2014-Jul-16 02:23N 29°43' E 122°32'0 0.1
2014-Jul-16 01:11N 29°43' E 122°32'0 0.1
2014-Jul-16 00:17N 29°43' E 122°32'0 0.1
2014-Jul-15 23:23N 29°43' E 122°33'0 0.1
2014-Jul-15 22:29N 29°43' E 122°33'0 0.1
2014-Jul-15 21:29N 29°43' E 122°33'0 0.0
2014-Jul-15 20:29N 29°43' E 122°33'0 0.1
2014-Jul-15 19:29N 29°43' E 122°33'0 0.1
2014-Jul-15 18:29N 29°43' E 122°33'0 0.1
2014-Jul-15 17:23N 29°43' E 122°33'1 1.2
2014-Jul-15 16:34N 29°42' E 122°33'7 6.6
2014-Jul-15 15:33N 29°36' E 122°37'1211.6
2014-Jul-15 14:33N 29°25' E 122°37'1211.7
2014-Jul-15 13:33N 29°13' E 122°37'1211.5
2014-Jul-15 12:29N 29°01' E 122°37'  
Track history (hours):
 
Tides and Currents Weather Stations Pressure Air Temp Water Temp Dewpoint Dewpoint Depression Visibility Wind Speed Wind Dir Waves Ship Positions

Hebei Shijiazhuang

Last reported at 2014-Jul-23 04:31 UTC. Time now 2014-Jul-23 05:14 UTC.
Position N 31°56' E 120°09'.

Length 235 m; draft 10.8 m.

Type: Cargo ship. MMSI: 477899600.

Date/timePositionNaut miles runAvg speedWind from/ knotsBaromVisibWave heightAir tempDewpointWater temp
2014-Jul-23 04:31N 31°56' E 120°09'0 0.0
2014-Jul-23 03:31N 31°56' E 120°09'0 0.0
2014-Jul-23 02:31N 31°56' E 120°09'0 0.0
2014-Jul-23 01:31N 31°56' E 120°09'0 0.0
2014-Jul-23 00:31N 31°56' E 120°09'0 0.0
2014-Jul-22 23:31N 31°56' E 120°09'0 0.0
2014-Jul-22 22:31N 31°56' E 120°09'0 0.0
2014-Jul-22 21:31N 31°56' E 120°09'0 0.0
2014-Jul-22 20:31N 31°56' E 120°09'0 0.0
2014-Jul-22 19:31N 31°56' E 120°09'0 0.0
2014-Jul-22 18:31N 31°56' E 120°09'0 0.0
2014-Jul-22 17:31N 31°56' E 120°09'0 0.0
2014-Jul-22 16:31N 31°56' E 120°09'0 0.0
2014-Jul-22 15:31N 31°56' E 120°09'0 0.0
2014-Jul-22 14:31N 31°56' E 120°09'0 0.0
2014-Jul-22 13:31N 31°56' E 120°09'0 0.0
2014-Jul-22 12:31N 31°56' E 120°09'0 0.0
2014-Jul-22 11:31N 31°56' E 120°09'0 0.0
2014-Jul-22 10:31N 31°56' E 120°09'0 0.0
2014-Jul-22 09:31N 31°56' E 120°09'0 0.0
2014-Jul-22 08:31N 31°56' E 120°09'0 0.0
2014-Jul-22 07:31N 31°56' E 120°09'0 0.0
2014-Jul-22 06:31N 31°56' E 120°09'0 0.0
2014-Jul-22 05:31N 31°56' E 120°09'0 0.0
2014-Jul-22 04:31N 31°56' E 120°09'0 0.0
2014-Jul-22 03:25N 31°56' E 120°09'0 0.0
2014-Jul-22 02:31N 31°56' E 120°09'0 0.0
2014-Jul-22 01:31N 31°56' E 120°09'0 0.0
2014-Jul-22 00:31N 31°56' E 120°09'0 0.0
2014-Jul-21 23:31N 31°56' E 120°09'0 0.0
2014-Jul-21 22:31N 31°56' E 120°09'0 0.0
2014-Jul-21 21:25N 31°56' E 120°09'0 0.0
2014-Jul-21 20:25N 31°56' E 120°09'0 0.0
2014-Jul-21 20:13N 31°56' E 120°09'0 0.0
2014-Jul-21 19:25N 31°56' E 120°09'0 0.0
2014-Jul-21 18:31N 31°56' E 120°09'0 0.0
2014-Jul-21 17:31N 31°56' E 120°09'0 0.0
2014-Jul-21 16:31N 31°56' E 120°09'1 1.4
2014-Jul-21 15:33N 31°56' E 120°11'10 9.7
2014-Jul-21 14:34N 31°58' E 120°22'6 6.5
2014-Jul-21 13:34N 32°02' E 120°28'1110.8
2014-Jul-21 12:34N 32°00' E 120°40'9 9.4
2014-Jul-21 11:33N 31°58' E 120°51'1110.7
2014-Jul-21 10:33N 31°48' E 120°55'9 9.5
2014-Jul-21 09:34N 31°45' E 121°06'1010.3
2014-Jul-21 08:33N 31°38' E 121°15'5 4.0
2014-Jul-21 07:20N 31°35' E 121°19'0 0.0
2014-Jul-21 05:08N 31°35' E 121°19'0 0.0
2014-Jul-21 04:32N 31°35' E 121°19'3 3.3
2014-Jul-21 03:33N 31°32' E 121°21'9 9.0
2014-Jul-21 02:33N 31°26' E 121°29'10 9.9
2014-Jul-21 01:33N 31°21' E 121°39'10 9.7
2014-Jul-21 00:33N 31°17' E 121°49'10 9.6
2014-Jul-20 23:32N 31°15' E 122°01'9 9.5
2014-Jul-20 22:34N 31°11' E 122°10'10 9.7
2014-Jul-20 21:33N 31°06' E 122°20'8 8.2
2014-Jul-20 20:33N 31°07' E 122°30'7 7.2
2014-Jul-20 19:31N 31°07' E 122°38'8 6.3
2014-Jul-20 18:16N 31°10' E 122°47'0 0.1
2014-Jul-20 16:08N 31°10' E 122°47'0 0.0
2014-Jul-19 23:32N 31°10' E 122°47'0 0.1
2014-Jul-19 20:23N 31°10' E 122°47'0 0.1
2014-Jul-19 19:23N 31°10' E 122°47'0 0.0
2014-Jul-19 12:17N 31°10' E 122°47'19 0.4
2014-Jul-17 18:24N 30°52' E 122°53'1112.7
2014-Jul-17 17:33N 30°42' E 122°57'1312.7
2014-Jul-17 16:33N 30°30' E 123°01'1312.6
2014-Jul-17 15:32N 30°18' E 123°06'1212.0
2014-Jul-17 14:33N 30°06' E 123°06'1510.0
2014-Jul-17 13:05N 29°57' E 122°53'610.5
2014-Jul-17 12:31N 29°55' E 122°47'1110.9
2014-Jul-17 11:33N 29°49' E 122°36'1111.3
2014-Jul-17 10:33N 29°44' E 122°25'1211.7
2014-Jul-17 09:33N 29°50' E 122°13'1110.9
2014-Jul-17 08:33N 29°55' E 122°02'7 7.0
2014-Jul-17 07:33N 30°02' E 121°59'0 0.0
2014-Jul-17 06:28N 30°02' E 121°59'0 0.0
2014-Jul-17 05:28N 30°02' E 121°59'0 0.0
2014-Jul-17 04:28N 30°02' E 121°59'0 0.0
2014-Jul-17 03:28N 30°02' E 121°59'0 0.0
2014-Jul-17 02:28N 30°02' E 121°59'0 0.0
2014-Jul-17 01:28N 30°02' E 121°59'0 0.0
2014-Jul-17 00:22N 30°02' E 121°59'0 0.0
2014-Jul-16 23:31N 30°02' E 121°59'0 0.0
2014-Jul-16 22:16N 30°02' E 121°59'0 0.0
2014-Jul-16 21:22N 30°02' E 121°59'0 0.0
2014-Jul-16 20:22N 30°02' E 121°59'0 0.0
2014-Jul-16 19:28N 30°02' E 121°59'0 0.0
2014-Jul-16 18:16N 30°02' E 121°59'0 0.1
2014-Jul-16 17:28N 30°02' E 121°59'0 0.0
2014-Jul-16 16:28N 30°02' E 121°59'0 0.0
2014-Jul-16 15:22N 30°02' E 121°59'0 0.0
2014-Jul-16 14:22N 30°02' E 121°59'0 0.0
2014-Jul-16 13:28N 30°02' E 121°59'0 0.0
2014-Jul-16 12:28N 30°02' E 121°59'0 0.0
2014-Jul-16 11:28N 30°02' E 121°59'0 0.1
2014-Jul-16 10:33N 30°02' E 121°59'4 4.4
2014-Jul-16 09:33N 29°57' E 122°00'6 5.6
2014-Jul-16 08:33N 29°56' E 122°06'5 5.5
2014-Jul-16 07:33N 29°53' E 122°12'9 8.5
2014-Jul-16 06:33N 29°46' E 122°18'9 9.1
2014-Jul-16 05:33N 29°43' E 122°28'4 3.9
2014-Jul-16 04:29N 29°43' E 122°33'0 0.1
2014-Jul-16 03:29N 29°43' E 122°32'0 0.1
2014-Jul-16 02:23N 29°43' E 122°32'0 0.1
2014-Jul-16 01:11N 29°43' E 122°32'0 0.1
2014-Jul-16 00:17N 29°43' E 122°32'0 0.1
2014-Jul-15 23:23N 29°43' E 122°33'0 0.1
2014-Jul-15 22:29N 29°43' E 122°33'0 0.1
2014-Jul-15 21:29N 29°43' E 122°33'0 0.0
2014-Jul-15 20:29N 29°43' E 122°33'0 0.1
2014-Jul-15 19:29N 29°43' E 122°33'0 0.1
2014-Jul-15 18:29N 29°43' E 122°33'0 0.1
2014-Jul-15 17:23N 29°43' E 122°33'1 1.2
2014-Jul-15 16:34N 29°42' E 122°33'7 6.6
2014-Jul-15 15:33N 29°36' E 122°37'1211.6
2014-Jul-15 14:33N 29°25' E 122°37'1211.7
2014-Jul-15 13:33N 29°13' E 122°37'1211.5
2014-Jul-15 12:29N 29°01' E 122°37'  

Dump ship's entire track history